"datetime","# probes","# resolvers","can_ipv6","can_ipv6_prbs","can_tcp","can_tcp_prbs","can_tcp6","can_tcp6_prbs","does_ecs","does_ecs_prbs","does_flagday","does_flagday_prbs","does_rov4","does_rov4_prbs","does_rov6","does_rov6_prbs","does_qnamemin","doesnt_qnamemin","does_qnamemin_prbs","doesnt_qnamemin_prbs","does_nxdomain","doesnt_nxdomain","does_nxdomain_prbs","doesnt_nxdomain_prbs","has_ta_19036","hasnt_ta_19036","has_ta_19036_prbs","hasnt_ta_19036_prbs","has_ta_20326","hasnt_ta_20326","has_ta_20326_prbs","hasnt_ta_20326_prbs","can_rsamd5","cannot_rsamd5","broken_rsamd5","can_rsamd5_prbs","cannot_rsamd5_prbs","broken_rsamd5_prbs","can_dsa","cannot_dsa","broken_dsa","can_dsa_prbs","cannot_dsa_prbs","broken_dsa_prbs","can_rsasha1","cannot_rsasha1","broken_rsasha1","can_rsasha1_prbs","cannot_rsasha1_prbs","broken_rsasha1_prbs","can_dsansec3","cannot_dsansec3","broken_dsansec3","can_dsansec3_prbs","cannot_dsansec3_prbs","broken_dsansec3_prbs","can_rsansec3","cannot_rsansec3","broken_rsansec3","can_rsansec3_prbs","cannot_rsansec3_prbs","broken_rsansec3_prbs","can_rsasha256","cannot_rsasha256","broken_rsasha256","can_rsasha256_prbs","cannot_rsasha256_prbs","broken_rsasha256_prbs","can_rsasha512","cannot_rsasha512","broken_rsasha512","can_rsasha512_prbs","cannot_rsasha512_prbs","broken_rsasha512_prbs","can_eccgost","cannot_eccgost","broken_eccgost","can_eccgost_prbs","cannot_eccgost_prbs","broken_eccgost_prbs","can_ecdsa256","cannot_ecdsa256","broken_ecdsa256","can_ecdsa256_prbs","cannot_ecdsa256_prbs","broken_ecdsa256_prbs","can_ecdsa384","cannot_ecdsa384","broken_ecdsa384","can_ecdsa384_prbs","cannot_ecdsa384_prbs","broken_ecdsa384_prbs","can_ed25519","cannot_ed25519","broken_ed25519","can_ed25519_prbs","cannot_ed25519_prbs","broken_ed25519_prbs","can_ed448","cannot_ed448","broken_ed448","can_ed448_prbs","cannot_ed448_prbs","broken_ed448_prbs","can_gost","cannot_gost","broken_gost","can_gost_prbs","cannot_gost_prbs","broken_gost_prbs","can_sha384","cannot_sha384","broken_sha384","can_sha384_prbs","cannot_sha384_prbs","broken_sha384_prbs","is_internal","is_forwarding","is_external","is_internal_prbs","is_forwarding_prbs","is_external_prbs"
2017-06-20T23:59:59Z,114,166,145,97,166,114,140,94,1,5,0,0,0,0,0,0,3,162,2,111,0,166,0,114,0,0,0,0,0,0,0,0,132,28,6,87,26,8,161,5,0,110,11,1,166,0,0,114,4,1,160,6,0,109,12,1,163,3,0,112,6,1,164,2,0,113,5,1,163,2,0,112,5,1,128,36,2,84,33,2,161,5,0,110,7,1,161,5,0,110,7,1,0,164,2,0,113,2,0,164,2,0,113,2,130,33,2,89,29,2,161,4,0,110,6,1,104,45,17,75,36,16
2017-06-21T23:59:59Z,115,166,144,97,166,115,141,95,3,6,0,0,0,0,0,0,3,163,2,113,0,166,0,115,0,0,0,0,0,0,0,0,129,33,4,86,29,7,161,5,0,111,11,1,166,0,0,115,4,1,161,5,0,111,11,1,164,2,0,114,5,1,164,2,0,114,5,1,164,2,0,114,5,1,126,38,2,84,34,2,162,4,0,112,6,1,162,4,0,112,6,1,0,164,2,0,114,2,0,164,2,0,114,2,129,35,2,89,30,2,163,2,1,112,5,2,106,44,16,77,35,16
2017-06-22T23:59:59Z,117,169,146,98,169,117,142,95,2,6,0,0,0,0,0,0,3,166,2,115,0,169,0,117,0,0,0,0,0,0,0,0,135,30,4,89,28,9,166,3,0,114,11,2,169,0,0,117,4,2,167,2,0,115,10,2,168,1,0,116,5,2,168,1,0,116,5,2,168,1,0,116,5,2,131,36,2,86,35,3,166,3,0,114,6,2,165,4,0,113,7,2,0,167,2,0,116,3,0,167,2,0,116,3,133,34,2,90,31,3,164,4,1,112,7,2,107,45,17,77,38,17
2017-06-23T23:59:59Z,114,166,144,96,166,114,141,94,2,6,0,0,0,0,0,0,2,164,1,113,1,165,1,114,0,0,0,0,0,0,0,0,135,29,2,89,28,5,165,1,0,113,10,0,166,0,0,114,5,0,163,2,1,112,10,1,165,0,1,114,5,1,165,0,1,114,5,1,165,0,1,114,5,1,130,33,3,86,32,2,163,2,1,112,6,1,163,2,1,112,6,1,0,163,3,0,113,2,0,163,3,0,113,2,132,31,3,90,29,2,163,2,1,112,6,1,107,42,17,77,35,16
2017-06-24T23:59:59Z,111,164,144,95,164,111,139,92,1,5,0,0,0,0,0,0,3,161,2,110,0,164,0,111,0,0,0,0,0,0,0,0,130,29,5,85,25,6,160,4,0,108,9,0,164,0,0,111,3,0,159,5,0,107,10,0,162,2,0,110,4,0,162,2,0,110,4,0,162,2,0,110,4,0,127,35,2,83,31,1,161,3,0,109,5,0,161,3,0,109,5,0,0,162,2,0,110,1,0,162,2,0,110,1,130,32,2,88,27,1,161,3,0,109,5,0,104,42,18,74,34,16
2017-06-25T23:59:59Z,111,165,145,95,165,111,142,93,0,4,0,0,0,0,0,0,2,163,1,110,0,165,0,111,0,0,0,0,0,0,0,0,133,29,3,86,26,5,163,2,0,109,9,0,165,0,0,111,4,0,162,3,0,108,11,0,165,0,0,111,4,0,165,0,0,111,4,0,165,0,0,111,4,0,130,33,2,84,32,1,164,1,0,110,5,0,164,1,0,110,5,0,0,163,2,0,110,1,0,163,2,0,110,1,133,30,2,89,27,1,164,1,0,110,5,0,103,44,18,75,34,16
2017-06-26T23:59:59Z,111,163,142,94,163,111,139,92,1,5,0,0,0,0,0,0,2,161,1,110,0,163,1,111,0,0,0,0,0,0,0,0,131,29,3,86,27,6,162,1,0,110,9,2,163,0,0,111,5,2,162,1,0,110,9,1,162,0,1,111,5,2,162,0,1,111,5,2,162,0,1,111,5,2,128,32,3,85,31,4,160,2,1,109,7,3,161,2,0,109,7,1,0,161,2,0,110,2,0,161,2,0,110,2,129,31,3,88,29,3,160,2,1,109,6,3,102,44,17,73,35,15
2017-06-27T23:59:59Z,115,167,147,99,167,115,143,96,1,5,0,0,0,0,0,0,3,164,2,113,0,167,0,115,0,0,0,0,0,0,0,0,134,30,3,88,30,6,165,2,0,113,11,1,167,0,0,115,6,1,164,3,0,112,12,1,166,1,0,114,7,1,166,1,0,114,7,1,166,1,0,114,7,1,132,33,2,87,34,2,165,2,0,113,8,1,165,2,0,113,8,1,0,165,2,0,114,2,0,165,2,0,114,2,135,30,2,92,30,2,165,2,0,113,8,1,103,46,18,76,36,16
2017-06-28T23:59:59Z,114,165,146,99,165,114,141,96,2,6,0,0,0,0,0,0,4,161,3,112,0,165,0,114,0,0,0,0,0,0,0,0,132,29,4,88,28,7,162,3,0,111,12,1,165,0,0,114,6,1,162,3,0,111,12,1,164,1,0,113,7,1,164,1,0,113,7,1,164,1,0,113,7,1,130,33,2,87,33,2,163,2,0,112,8,1,163,2,0,112,8,1,0,163,2,0,113,2,0,163,2,0,113,2,132,30,3,92,29,3,163,1,1,113,7,2,103,45,17,75,36,16
2017-06-29T23:59:59Z,115,166,146,99,166,115,143,97,0,5,0,0,0,0,0,0,4,162,3,113,0,166,0,115,0,0,0,0,0,0,0,0,131,30,5,88,28,8,161,5,0,111,13,1,166,0,0,115,5,1,160,6,0,110,14,1,164,2,0,114,6,0,164,2,0,114,6,0,164,2,0,114,6,0,127,37,2,85,36,1,162,4,0,112,8,0,162,4,0,112,8,0,0,164,2,0,114,1,0,164,2,0,114,1,131,33,2,91,30,1,161,5,0,112,8,0,103,46,17,76,36,16
2017-06-30T23:59:59Z,114,163,142,97,163,114,139,95,0,5,0,0,0,0,0,0,4,159,3,111,0,163,1,114,0,0,0,0,0,0,0,0,130,28,5,87,28,9,160,3,0,111,13,1,163,0,0,114,6,1,160,3,0,111,13,1,163,0,0,114,6,1,163,0,0,114,6,1,163,0,0,114,6,1,128,32,3,86,34,3,162,1,0,113,7,1,162,1,0,113,7,1,0,160,3,0,112,3,0,160,3,0,112,3,131,29,3,91,29,3,162,1,0,113,7,1,103,43,17,76,35,16
2017-07-01T23:59:59Z,114,161,141,98,161,114,136,95,0,5,0,0,0,0,0,0,3,158,2,112,0,161,0,114,0,0,0,0,0,0,0,0,127,30,4,88,29,7,158,3,0,112,13,0,161,0,0,114,6,0,155,6,0,109,15,0,159,2,0,113,7,0,159,2,0,113,7,0,159,2,0,113,7,0,122,37,2,84,37,1,157,4,0,111,9,0,157,4,0,111,9,0,0,159,2,0,113,1,0,159,2,0,113,1,126,33,2,90,31,1,158,3,0,112,8,0,102,43,16,76,35,16
2017-07-02T23:59:59Z,113,163,143,97,163,113,139,94,0,5,0,0,0,0,0,0,4,159,3,111,0,163,0,113,0,0,0,0,0,0,0,0,129,31,3,86,29,6,160,3,0,110,12,0,163,0,0,113,5,0,160,3,0,110,13,0,162,1,0,112,6,0,162,1,0,112,6,0,162,1,0,112,6,0,127,34,2,85,35,1,161,2,0,111,7,0,161,2,0,111,7,0,0,161,2,0,112,1,0,161,2,0,112,1,129,32,2,89,30,1,161,2,0,111,7,0,103,43,17,75,35,16
2017-07-03T23:59:59Z,118,171,147,99,171,118,144,97,2,6,0,0,0,0,0,0,7,164,5,114,0,171,0,118,0,0,0,0,0,0,0,0,134,30,7,89,29,10,169,2,0,116,12,1,171,0,0,118,6,1,169,2,0,116,12,1,171,0,0,118,6,1,171,0,0,118,6,1,171,0,0,118,6,1,132,34,5,88,35,4,168,3,0,115,9,1,168,3,0,115,9,1,0,166,5,0,115,4,0,166,5,0,115,4,134,32,5,92,31,4,169,2,0,116,8,1,110,44,17,79,36,16
2017-07-04T23:59:59Z,116,168,145,98,168,116,142,96,0,5,0,0,0,0,0,0,5,163,4,113,0,168,0,116,0,0,0,0,0,0,0,0,133,30,5,88,30,8,165,3,0,113,14,0,168,0,0,116,7,0,165,3,0,113,14,0,168,0,0,116,7,0,168,0,0,116,7,0,168,0,0,116,7,0,130,35,3,86,36,2,166,2,0,114,8,0,166,2,0,114,8,0,0,165,3,0,114,2,0,165,3,0,114,2,133,32,3,91,31,2,166,2,0,114,8,0,109,43,16,79,34,16
2017-07-05T23:59:59Z,118,171,149,101,171,118,146,99,0,6,0,0,0,0,0,0,3,168,2,116,0,171,0,118,0,0,0,0,0,0,0,0,132,31,8,88,31,10,164,7,0,113,17,0,171,0,0,118,7,0,164,7,0,113,17,0,167,4,0,116,9,0,167,4,0,116,9,0,167,4,0,116,9,0,129,40,2,86,39,1,167,4,0,115,9,0,167,4,0,115,9,0,0,169,2,0,117,1,0,169,2,0,117,1,132,37,2,92,34,1,165,6,0,114,10,0,109,46,16,79,36,17
2017-07-06T23:59:59Z,117,169,145,99,169,117,142,97,1,7,0,0,0,0,0,0,5,164,3,114,0,167,0,116,0,0,0,0,0,0,0,0,132,31,6,88,31,10,166,3,0,114,15,1,169,0,0,117,7,1,166,3,0,114,15,1,169,0,0,117,7,0,169,0,0,117,7,0,169,0,0,117,7,0,129,36,4,86,37,2,166,3,0,114,9,0,166,3,0,114,9,0,0,165,4,0,115,2,0,165,4,0,115,2,132,33,4,92,32,3,167,2,0,115,8,0,108,43,18,80,34,17
2017-07-07T23:59:59Z,117,168,144,99,168,117,141,97,1,7,0,0,0,0,0,0,6,162,4,114,0,168,0,117,0,0,0,0,0,0,0,0,132,31,5,89,31,8,166,2,0,115,14,0,168,0,0,117,7,0,164,4,0,113,16,0,168,0,0,117,7,0,168,0,0,117,7,0,168,0,0,117,7,0,127,37,4,85,38,2,166,2,0,115,8,0,166,2,0,115,8,0,0,164,4,0,115,2,0,164,4,0,115,2,131,33,4,92,32,2,166,2,0,115,8,0,109,42,17,80,34,17
2017-07-08T23:59:59Z,119,172,147,101,172,119,142,98,2,7,0,0,0,0,0,0,5,167,3,116,0,172,0,119,0,0,0,0,0,0,0,0,134,31,7,90,32,10,166,6,0,116,16,0,172,0,0,119,7,0,166,6,0,116,17,0,170,2,0,118,8,0,170,2,0,118,8,0,170,2,0,118,8,0,129,39,4,88,39,2,168,4,0,116,9,0,168,4,0,116,9,0,0,168,4,0,117,2,0,168,4,0,117,2,133,35,4,94,34,2,168,4,0,116,9,0,109,45,18,79,36,19
2017-07-09T23:59:59Z,117,172,149,100,172,117,146,98,1,7,0,0,0,0,0,0,4,168,3,115,0,170,0,116,0,0,0,0,0,0,0,0,135,33,4,89,33,8,168,4,0,115,15,0,172,0,0,117,7,0,167,5,0,114,16,0,172,0,0,117,7,0,172,0,0,117,7,0,172,0,0,117,7,0,130,40,2,86,39,1,170,2,0,115,8,0,170,2,0,115,8,0,0,170,2,0,116,1,0,170,2,0,116,1,135,35,2,93,34,1,170,2,0,115,8,0,111,42,19,79,34,19
2017-07-10T23:59:59Z,119,173,151,102,173,119,146,99,0,7,0,0,0,0,0,0,4,169,3,117,0,173,0,119,0,0,0,0,0,0,0,0,135,31,7,90,31,10,166,7,0,114,17,0,173,0,0,119,7,0,165,8,0,113,18,0,169,4,0,117,9,0,169,4,0,117,9,0,169,4,0,117,9,0,130,41,2,86,40,1,168,5,0,115,10,0,168,5,0,115,10,0,0,171,2,0,118,1,0,171,2,0,118,1,133,38,2,92,35,1,167,6,0,115,10,0,110,46,17,80,36,18
2017-07-11T23:59:59Z,116,169,147,99,169,116,144,97,4,9,0,0,0,0,0,0,3,166,2,114,0,169,0,116,0,0,0,0,0,0,0,0,134,31,4,88,31,9,167,2,0,114,14,1,169,0,0,116,7,1,165,4,0,112,16,1,169,0,0,116,7,1,169,0,0,116,7,1,169,0,0,116,7,1,129,38,2,85,39,2,167,2,0,114,8,1,167,2,0,114,8,1,0,167,2,0,115,2,0,167,2,0,115,2,133,34,2,92,33,2,165,4,0,113,9,1,108,42,19,78,34,19
2017-07-12T23:59:59Z,117,170,148,100,170,117,143,97,2,8,0,0,0,0,0,0,2,168,1,116,0,170,0,117,0,0,0,0,0,0,0,0,135,30,5,89,31,9,165,5,0,113,16,0,170,0,0,117,7,0,164,6,0,112,17,0,168,2,0,116,8,0,168,2,0,116,8,0,168,2,0,116,8,0,130,38,2,86,39,1,165,5,0,113,10,0,165,5,0,113,10,0,0,168,2,0,116,1,0,168,2,0,116,1,133,35,2,92,34,1,165,5,0,113,10,0,109,42,19,79,34,19
2017-07-13T23:59:59Z,120,179,155,102,179,120,150,99,1,8,0,0,0,0,0,0,5,174,3,117,0,177,0,119,0,0,0,0,0,0,0,0,136,32,11,87,32,12,170,9,0,113,19,0,179,0,0,120,7,0,171,8,0,114,18,0,175,4,0,118,9,0,175,4,0,118,9,0,175,4,0,118,9,0,133,42,4,86,41,2,175,4,0,117,9,0,175,4,0,117,9,0,0,175,4,0,118,2,0,175,4,0,118,2,141,34,4,95,33,2,175,4,0,117,9,0,112,47,20,81,35,19
2017-07-14T23:59:59Z,115,169,145,97,169,115,143,96,1,8,0,0,0,0,0,0,5,164,3,112,0,169,0,115,0,0,0,0,0,0,0,0,134,29,6,87,30,9,166,3,0,112,15,0,169,0,0,115,7,0,165,4,0,111,16,0,169,0,0,115,7,0,169,0,0,115,7,0,169,0,0,115,7,0,130,35,4,85,37,2,167,2,0,113,8,0,167,2,0,113,8,0,0,165,4,0,113,2,0,165,4,0,113,2,134,31,4,92,31,2,167,2,0,113,8,0,108,42,19,78,33,19
2017-07-15T23:59:59Z,118,174,151,100,174,118,148,98,1,8,0,0,0,0,0,0,3,171,2,116,0,174,0,118,0,0,0,0,0,0,0,0,139,32,3,90,31,9,171,3,0,115,14,1,174,0,0,118,6,1,170,4,0,114,15,1,174,0,0,118,6,1,174,0,0,118,6,1,174,0,0,118,6,1,133,39,2,86,39,2,171,3,0,115,8,1,171,3,0,115,8,1,0,172,2,0,117,2,0,172,2,0,117,2,137,35,2,93,33,2,171,3,0,115,8,1,113,42,19,80,34,19
2017-07-16T23:59:59Z,117,170,148,100,170,117,143,97,1,7,0,0,0,0,0,0,3,167,2,115,0,170,1,117,0,0,0,0,0,0,0,0,135,30,5,89,31,9,165,5,0,113,16,0,170,0,0,117,7,0,164,6,0,112,17,0,168,2,0,116,8,0,168,2,0,116,8,0,168,2,0,116,8,0,130,38,2,86,39,1,166,4,0,114,9,0,166,4,0,114,9,0,0,168,2,0,116,1,0,168,2,0,116,1,134,34,2,93,33,1,166,4,0,114,9,0,111,43,16,80,33,18
2017-07-17T23:59:59Z,117,174,155,102,174,117,152,100,2,8,0,0,0,0,0,0,1,173,1,116,0,174,0,117,0,0,0,0,0,0,0,0,138,32,4,88,31,9,167,7,0,111,17,0,174,0,0,117,6,0,167,7,0,111,17,0,174,0,0,117,6,0,174,0,0,117,6,0,174,0,0,117,6,0,134,40,0,86,39,0,169,5,0,113,9,0,169,5,0,113,9,0,0,174,0,0,117,0,0,174,0,0,117,0,139,35,0,94,32,0,170,4,0,114,8,0,108,46,20,78,35,19
2017-07-18T23:59:59Z,118,174,155,103,174,118,151,100,0,7,0,0,0,0,0,0,2,172,2,117,0,174,0,118,0,0,0,0,0,0,0,0,139,30,5,90,30,9,168,6,0,113,17,0,174,0,0,118,7,0,167,7,0,112,18,0,173,1,0,117,8,0,173,1,0,117,8,0,173,1,0,117,8,0,134,40,0,87,40,0,170,4,0,115,9,0,170,4,0,115,9,0,0,174,0,0,118,0,0,174,0,0,118,0,138,36,0,94,34,0,169,5,0,114,10,0,110,45,19,79,35,19
2017-07-19T23:59:59Z,119,176,152,101,176,119,149,99,2,7,0,0,0,0,0,0,5,171,3,116,0,176,0,119,0,0,0,0,0,0,0,0,138,30,8,90,30,11,170,6,0,114,16,1,176,0,0,119,7,1,170,6,0,114,16,1,174,2,0,118,8,1,174,2,0,118,8,1,174,2,0,118,8,1,133,39,4,87,39,3,171,5,0,115,10,1,171,5,0,115,10,1,0,172,4,0,117,3,0,172,4,0,117,3,137,35,4,93,33,3,171,5,0,115,10,1,110,46,20,79,36,18
2017-07-20T23:59:59Z,118,175,152,101,175,118,149,99,1,6,0,0,0,0,0,0,5,170,3,115,0,175,0,118,0,0,0,0,0,0,0,0,141,28,6,91,29,8,172,3,0,115,14,0,175,0,0,118,7,0,172,3,0,115,15,0,175,0,0,118,7,0,175,0,0,118,7,0,175,0,0,118,7,0,139,32,4,91,35,2,173,2,0,116,8,0,173,2,0,116,8,0,0,171,4,0,116,2,0,171,4,0,116,2,141,30,4,95,30,2,173,2,0,116,8,0,111,45,19,79,35,18
2017-07-21T23:59:59Z,114,171,151,99,171,114,148,97,1,6,0,0,0,0,0,0,1,170,1,113,0,171,0,114,0,0,0,0,0,0,0,0,142,28,1,90,28,6,168,3,0,111,13,0,171,0,0,114,6,0,167,4,0,110,14,0,171,0,0,114,6,0,171,0,0,114,6,0,171,0,0,114,6,0,137,34,0,87,35,0,169,2,0,112,7,0,169,2,0,112,7,0,0,171,0,0,114,0,0,171,0,0,114,0,141,30,0,93,29,0,169,2,0,112,7,0,105,44,22,75,35,18
2017-07-22T23:59:59Z,115,170,147,98,169,115,144,96,2,7,0,0,0,0,0,0,4,166,3,113,0,170,0,115,0,0,0,0,0,0,0,0,136,30,4,87,30,7,168,2,0,113,12,0,170,0,0,115,6,0,168,2,0,113,12,0,170,0,0,115,6,0,170,0,0,115,6,0,170,0,0,115,6,0,134,33,3,87,35,2,168,1,1,113,7,1,168,1,1,113,7,1,0,167,3,0,114,2,0,167,3,0,114,2,136,31,3,91,31,2,168,1,1,113,7,1,106,45,19,76,35,18
2017-07-23T23:59:59Z,119,175,151,101,174,119,148,99,2,7,0,0,0,0,0,0,3,172,2,117,0,175,0,119,0,0,0,0,0,0,0,0,143,29,3,93,29,8,172,3,0,116,13,1,175,0,0,119,6,1,171,4,0,115,14,1,175,0,0,119,6,1,175,0,0,119,6,1,175,0,0,119,6,1,137,35,3,89,37,3,172,2,1,116,8,2,172,2,1,116,8,2,0,172,3,0,118,3,0,172,3,0,118,3,141,31,3,95,31,3,172,2,1,116,8,2,109,47,19,78,37,18
2017-07-24T23:59:59Z,118,175,152,101,175,118,149,99,3,7,0,0,0,0,0,0,3,172,2,116,0,174,0,117,0,0,0,0,0,0,0,0,142,30,3,91,30,7,172,3,0,115,13,0,175,0,0,118,6,0,171,4,0,114,14,0,175,0,0,118,6,0,175,0,0,118,6,0,175,0,0,118,6,0,137,36,2,88,37,1,172,3,0,115,9,0,173,2,0,116,7,0,0,173,2,0,117,1,0,173,2,0,117,1,140,33,2,93,32,1,172,3,0,115,8,0,110,45,20,79,35,18
2017-07-25T23:59:59Z,118,174,151,101,174,118,148,99,6,10,0,0,0,0,0,0,5,169,3,116,0,174,0,118,0,0,0,0,0,0,0,0,137,31,6,89,32,10,169,5,0,113,16,1,174,0,0,118,8,1,170,4,0,114,15,1,174,0,0,118,8,1,173,1,0,117,9,1,173,1,0,117,9,1,134,37,3,88,38,2,171,3,0,115,10,1,171,3,0,115,10,1,0,171,3,0,117,2,0,171,3,0,117,2,138,33,3,94,33,2,172,2,0,116,9,1,109,45,20,79,35,18
2017-07-26T23:59:59Z,117,173,149,99,173,117,146,97,1,6,0,0,0,0,0,0,5,168,3,114,0,173,0,117,0,0,0,0,0,0,0,0,137,31,5,89,31,7,171,2,0,115,13,0,173,0,0,117,7,0,170,3,0,114,14,0,173,0,0,117,7,0,173,0,0,117,7,0,173,0,0,117,7,0,133,36,4,87,37,2,171,2,0,115,8,0,171,2,0,115,8,0,0,169,4,0,115,2,0,169,4,0,115,2,136,33,4,92,32,2,171,2,0,115,8,0,109,45,19,78,35,17
2017-07-27T23:59:59Z,118,173,149,100,173,118,146,98,0,5,0,0,0,0,0,0,5,168,3,115,0,173,0,118,0,0,0,0,0,0,0,0,136,30,7,89,30,8,169,4,0,115,13,0,173,0,0,118,6,0,168,5,0,114,15,0,170,3,0,116,8,0,170,3,0,116,8,0,170,3,0,116,8,0,132,37,4,87,38,2,168,5,0,114,9,0,168,5,0,114,9,0,0,169,4,0,116,2,0,169,4,0,116,2,137,32,4,93,31,2,170,3,0,115,8,0,107,47,19,78,36,17
2017-07-28T23:59:59Z,116,172,150,99,172,116,147,97,0,5,0,0,0,0,0,0,4,168,3,114,0,170,0,115,0,0,0,0,0,0,0,0,137,31,4,88,31,7,170,2,0,114,13,0,172,0,0,116,7,0,170,2,0,114,13,0,172,0,0,116,7,0,172,0,0,116,7,0,172,0,0,116,7,0,135,35,2,88,36,1,170,2,0,114,8,0,170,2,0,114,8,0,0,170,2,0,115,1,0,170,2,0,115,1,136,34,2,91,33,1,168,4,0,113,9,0,106,46,20,77,35,17
2017-07-29T23:59:59Z,117,172,152,102,172,117,148,99,0,6,0,0,0,0,0,0,3,169,2,115,0,172,0,117,0,0,0,0,0,0,0,0,139,29,4,91,29,8,169,3,0,114,14,0,172,0,0,117,6,0,169,3,0,114,14,0,171,1,0,116,7,0,171,1,0,116,7,0,171,1,0,116,7,0,134,36,2,88,36,1,168,4,0,113,9,0,168,4,0,113,9,0,0,170,2,0,116,1,0,170,2,0,116,1,137,33,2,94,31,1,169,3,0,114,8,0,108,45,19,78,35,18
2017-07-30T23:59:59Z,117,172,150,100,172,117,147,98,2,8,0,0,0,0,0,0,4,168,3,115,0,171,0,116,0,0,0,0,0,0,0,0,139,30,3,90,31,8,171,1,0,116,13,1,172,0,0,117,7,1,170,2,0,115,14,1,172,0,0,117,7,1,172,0,0,117,7,1,172,0,0,117,7,1,135,35,2,88,37,2,169,3,0,114,9,1,169,3,0,114,9,1,0,170,2,0,116,2,0,170,2,0,116,2,137,33,2,93,33,2,169,3,0,114,9,1,106,46,20,77,36,18
2017-07-31T23:59:59Z,117,175,154,101,175,117,150,98,0,6,0,0,0,0,0,0,3,172,2,115,0,175,0,117,0,0,0,0,0,0,0,0,140,31,4,90,29,8,173,2,0,115,13,0,175,0,0,117,6,0,173,2,0,115,13,0,174,1,0,116,7,0,174,1,0,116,7,0,174,1,0,116,7,0,138,35,2,90,34,1,173,2,0,115,7,0,173,2,0,115,7,0,0,173,2,0,116,1,0,173,2,0,116,1,139,34,2,94,31,1,173,2,0,115,7,0,109,46,20,77,36,18
2017-08-01T23:59:59Z,117,175,152,100,174,117,147,97,0,6,0,0,0,0,0,0,5,170,3,114,0,175,0,117,0,0,0,0,0,0,0,0,140,28,7,90,28,9,170,5,0,113,15,0,175,0,0,117,6,0,169,6,0,112,16,0,175,0,0,117,6,0,175,0,0,117,6,0,175,0,0,117,6,0,136,35,4,88,35,2,171,4,0,114,8,0,171,4,0,114,8,0,0,171,4,0,115,2,0,171,4,0,115,2,138,33,4,93,31,2,172,3,0,115,7,0,110,47,18,78,35,17
2017-08-02T23:59:59Z,118,178,155,101,178,118,152,99,0,6,0,0,0,0,0,0,6,172,4,115,0,176,0,117,0,0,0,0,0,0,0,0,142,30,6,90,30,9,175,3,0,115,15,0,178,0,0,118,7,0,175,3,0,115,15,0,178,0,0,118,7,0,178,0,0,118,7,0,178,0,0,118,7,0,139,35,4,89,36,2,177,1,0,117,7,0,177,1,0,117,7,0,0,174,4,0,116,2,0,174,4,0,116,2,142,32,4,95,31,2,177,1,0,117,7,0,112,46,20,79,35,18
2017-08-03T23:59:59Z,116,174,155,100,174,116,152,98,0,5,0,0,0,0,0,0,3,171,2,114,0,174,0,116,0,0,0,0,0,0,0,0,144,27,3,92,28,7,172,2,0,114,13,1,174,0,0,116,7,1,172,2,0,114,13,1,174,0,0,116,7,1,174,0,0,116,7,1,174,0,0,116,7,1,140,32,2,90,34,2,172,2,0,114,8,1,172,2,0,114,8,1,0,172,2,0,115,2,0,172,2,0,115,2,142,30,2,94,30,2,172,2,0,114,8,1,107,47,20,76,36,17
2017-08-04T23:59:59Z,116,172,156,102,172,116,153,100,1,7,0,0,0,0,0,0,1,171,1,115,0,172,0,116,0,0,0,0,0,0,0,0,147,25,0,95,27,6,169,3,0,113,16,0,172,0,0,116,7,0,168,4,0,112,16,0,172,0,0,116,7,0,172,0,0,116,7,0,172,0,0,116,7,0,142,30,0,92,34,0,170,2,0,114,8,0,170,2,0,114,8,0,0,172,0,0,116,0,0,172,0,0,116,0,144,28,0,96,29,0,171,1,0,115,7,0,106,47,19,77,35,18
2017-08-05T23:59:59Z,115,171,153,99,171,115,150,97,2,7,0,0,0,0,0,0,1,170,1,114,0,171,0,115,0,0,0,0,0,0,0,0,144,26,1,92,27,6,169,2,0,113,12,1,171,0,0,115,6,1,167,3,0,111,13,1,170,0,0,114,6,1,170,0,0,114,6,1,170,0,0,114,6,1,139,32,0,89,34,1,169,2,0,113,7,1,167,2,1,112,7,2,0,170,1,0,115,2,0,170,1,0,115,2,142,29,0,94,29,1,169,2,0,113,7,1,105,47,19,75,36,17
2017-08-06T23:59:58Z,121,181,162,105,181,121,159,103,0,5,0,0,0,0,0,0,3,178,2,119,0,181,0,121,0,0,0,0,0,0,0,0,148,29,4,94,30,7,177,4,0,117,15,0,181,0,0,121,8,0,175,5,0,115,16,0,179,1,0,119,8,0,179,1,0,119,8,0,179,1,0,119,8,0,143,36,2,91,38,1,178,3,0,118,9,0,177,3,0,117,9,0,0,179,2,0,120,1,0,179,2,0,120,1,147,32,2,97,32,1,179,2,0,119,8,0,114,47,20,81,36,17
2017-08-07T23:59:59Z,120,179,160,104,179,120,157,102,2,7,0,0,0,0,0,0,3,176,2,118,0,177,0,119,0,0,0,0,0,0,0,0,147,29,3,94,30,6,176,3,0,117,14,0,179,0,0,120,7,0,175,3,0,116,14,0,178,0,0,119,7,0,178,0,0,119,7,0,178,0,0,119,7,0,143,34,2,92,36,1,177,2,0,118,8,0,177,2,0,118,8,0,0,177,2,0,119,1,0,177,2,0,119,1,146,31,2,97,31,1,177,2,0,118,8,0,114,46,19,81,35,17
2017-08-08T23:59:59Z,121,182,161,104,182,121,158,102,1,6,0,0,0,0,0,0,5,177,3,118,0,182,0,121,0,0,0,0,0,0,0,0,148,29,5,94,30,7,179,3,0,118,14,0,182,0,0,121,7,0,178,3,0,117,14,0,181,0,0,120,7,0,181,0,0,120,7,0,181,0,0,120,7,0,144,34,4,92,36,2,180,2,0,119,8,0,180,2,0,119,8,0,0,178,4,0,119,2,0,178,4,0,119,2,147,31,4,97,31,2,180,2,0,119,8,0,116,47,19,82,35,17
2017-08-09T23:59:59Z,120,180,159,103,180,120,155,100,1,6,0,0,0,0,0,0,5,175,3,117,0,180,0,120,0,0,0,0,0,0,0,0,146,28,6,93,28,8,176,4,0,116,14,0,180,0,0,120,6,0,175,4,0,115,14,0,178,1,0,118,7,0,177,2,0,117,8,0,178,1,0,118,7,0,142,34,4,91,35,2,176,4,0,116,9,0,176,4,0,116,9,0,0,176,4,0,118,2,0,176,4,0,118,2,145,31,4,96,30,2,176,4,0,116,9,0,115,45,20,81,35,17
2017-08-10T23:59:59Z,120,181,161,103,181,120,155,99,2,7,0,0,0,0,0,0,3,178,2,118,0,181,0,120,0,0,0,0,0,0,0,0,145,30,6,92,29,9,176,5,0,116,14,1,181,0,0,120,6,1,175,5,0,115,14,1,178,2,0,118,7,1,178,2,0,118,7,1,178,2,0,118,7,1,141,38,2,90,37,2,176,5,0,116,9,1,176,5,0,116,9,1,0,179,2,0,119,2,0,179,2,0,119,2,143,36,2,94,33,2,175,6,0,115,10,1,115,47,19,80,36,17
2017-08-11T23:59:59Z,116,174,154,100,174,116,151,98,0,6,0,0,0,0,0,0,3,171,2,114,0,173,1,115,0,0,0,0,0,0,0,0,142,29,3,90,29,7,173,1,0,115,12,0,174,0,0,116,7,0,172,1,0,114,12,0,173,0,0,115,7,0,173,0,0,115,7,0,173,0,0,115,7,0,140,32,2,90,33,1,172,2,0,114,8,0,172,2,0,114,8,0,0,172,2,0,115,1,0,172,2,0,115,1,141,31,2,94,30,1,171,2,1,113,8,1,110,45,19,77,35,18
2017-08-12T23:59:59Z,117,176,157,101,176,117,154,99,0,5,0,0,0,0,0,0,3,173,2,115,0,176,0,117,0,0,0,0,0,0,0,0,142,29,5,90,28,8,172,4,0,113,14,0,176,0,0,117,6,0,170,5,0,111,15,0,174,1,0,115,7,0,174,1,0,115,7,0,174,1,0,115,7,0,138,36,2,88,36,1,172,4,0,113,9,0,172,4,0,113,9,0,0,174,2,0,116,1,0,174,2,0,116,1,142,32,2,94,30,1,173,3,0,114,8,0,112,45,19,78,35,17
2017-08-13T23:59:59Z,118,178,156,100,178,118,155,99,1,6,0,0,0,0,0,0,5,173,3,115,0,176,0,117,0,0,0,0,0,0,0,0,144,28,6,91,28,9,174,4,0,114,14,1,178,0,0,118,6,1,174,3,0,114,13,1,177,0,0,117,6,1,177,0,0,117,6,1,177,0,0,117,6,1,141,33,4,90,34,3,176,2,0,116,7,1,176,2,0,116,7,1,0,174,4,0,116,3,0,174,4,0,116,3,143,31,4,94,30,3,176,2,0,116,7,1,116,44,18,81,33,16
2017-08-14T23:59:59Z,122,185,160,103,185,122,158,101,1,7,0,0,0,0,0,0,6,179,4,119,0,185,0,122,0,0,0,0,0,0,0,0,148,31,6,93,31,9,183,2,0,120,14,1,185,0,0,122,7,1,182,2,0,119,14,1,184,0,0,121,7,1,184,0,0,121,7,1,184,0,0,121,7,1,146,35,4,93,36,3,182,3,0,119,9,1,182,3,0,119,9,1,0,181,4,0,120,3,0,181,4,0,120,3,148,33,4,98,32,3,183,2,0,120,8,1,120,45,20,84,34,18
2017-08-15T23:59:59Z,123,186,161,104,185,123,157,102,2,7,0,0,0,0,0,0,6,180,4,120,0,186,0,123,0,0,0,0,0,0,0,0,145,33,8,91,33,11,182,4,0,120,15,1,186,0,0,123,7,1,180,5,0,118,16,1,184,1,0,121,8,1,184,1,0,121,8,1,184,1,0,121,8,1,142,40,4,90,40,3,183,3,0,120,9,1,183,3,0,120,9,1,0,182,4,0,121,3,0,182,4,0,121,3,147,35,4,97,34,3,183,3,0,120,9,1,120,46,20,84,35,18
2017-08-16T23:59:59Z,122,181,160,105,181,122,155,101,1,7,0,0,0,0,0,0,1,180,1,121,0,181,0,122,0,0,0,0,0,0,0,0,147,33,1,94,33,8,179,2,0,120,15,1,181,0,0,122,7,1,176,4,0,117,16,1,179,1,0,120,8,1,179,1,0,120,8,1,179,1,0,120,8,1,143,38,0,92,39,1,178,3,0,119,9,1,178,3,0,119,9,1,0,181,0,0,122,1,0,181,0,0,122,1,145,36,0,97,35,1,178,3,0,119,9,1,117,45,19,83,35,18
2017-08-17T23:59:59Z,124,186,162,105,186,124,157,101,2,9,0,0,0,0,0,0,4,182,3,122,0,186,0,124,0,0,0,0,0,0,0,0,148,34,4,93,33,10,183,3,0,121,14,2,186,0,0,124,6,2,181,4,0,119,15,2,184,1,0,122,7,2,184,1,0,122,7,2,184,1,0,122,7,2,143,41,2,90,41,3,182,4,0,120,9,2,182,4,0,120,9,2,0,184,2,0,123,3,0,184,2,0,123,3,147,37,2,97,35,3,182,4,0,120,9,2,120,47,19,84,36,18
2017-08-18T23:59:59Z,119,176,153,101,176,119,149,98,0,6,0,0,0,0,0,0,4,172,3,117,0,176,0,119,0,0,0,0,0,0,0,0,138,33,5,88,32,9,173,3,0,116,14,1,176,0,0,119,6,1,172,3,0,115,14,1,175,0,0,118,6,1,175,0,0,118,6,1,175,0,0,118,6,1,136,38,2,88,38,2,174,2,0,117,7,1,174,2,0,117,7,1,0,174,2,0,118,2,0,174,2,0,118,2,139,35,2,94,33,2,174,2,0,117,7,1,118,41,17,83,32,17
2017-08-19T23:59:59Z,120,179,154,101,179,120,150,98,1,6,0,0,0,0,0,0,5,174,3,117,0,176,0,119,0,0,0,0,0,0,0,0,139,34,6,88,34,9,177,1,1,118,12,2,179,0,0,120,7,1,176,1,1,117,12,2,178,0,0,119,7,1,178,0,0,119,7,1,178,0,0,119,7,1,137,37,5,88,37,4,177,2,0,118,8,1,177,2,0,118,8,1,0,174,5,0,117,4,0,174,5,0,117,4,138,36,5,92,35,4,177,2,0,118,8,1,120,41,18,85,31,16